SSB

Satellite information

Favourite Embed

Satellite Type and Status

PAYLOADIN ORBIT

Key statistics

Satellite SSB at a glance.

Uptime

15489

Days in orbit

Revolutions

≈ 13.8

Per day

Orbit

LEO

Low Earth Orbit

Inclination

63.3

Latest

Satellite identification and parameters

Extended collection of information and parameters for SSB.

Object identification

Identified? True

Debris? False

Object name: SSB

International designator: 1983-008F

Object number (NORAD): 13845

Object ID (CCSDS): 13845

Country: UNITED STATES OF AMERICA (US)

Current information (Y/N): Y

RCS size: LARGE

Orbital parameters

Period: 104.656 minutes

Inclination: 63.305 deg

SMA: 7356.464 km

Apoapsis: 1524.967 km

Periapsis: 431.692 km

RAAN: 248.0509 deg

Eccentricy: 0.0743071

Argument of periapsis: 129.603 deg

Mean anomaly: 237.3074 deg

Mean motion: 13.75938681 rev/day

Mean motion (dot): 0.00002934 rev/day2

B* drag term: 0.00036739 1/REarth

Two-line elements (TLE)

Creation date: July 6, 2025, 10:46 p.m.

Reference frame: TEME

Reference center: EARTH

Epoch: July 6, 2025, 4:26 p.m. UTC

TLE line 0: 0 SSB

TLE line 1: 1 13845U 83008F 25187.68536876 .00002934 00000-0 36739-3 0 9991

TLE line 2: 2 13845 63.3050 248.0509 0743071 129.6030 237.3074 13.75938681297310

Live tracking on map

Real-time ground track for satellite SSB.

In-orbit conjunctions

There are no conjunctions computed for SSB, at the moment. Check back to stay up to date, as we update our databases every day.

Go to all conjunctions

Associated space launch

The Parcae satellites were passive ELINT satellites. MSD satellites were dispensers of triplets of ocean surveillance satellites.

SSB was lifted into orbit during the mission ‘Atlas H | Parcae 5A,B,C & MSD 5’, on board a Atlas H space rocket.

The launch took place on Feb. 9, 1983, 1:47 p.m. from Space Launch Complex 3E.

For more information about the launch, click the button.

Launch to space Atlas H | Parcae 5A,B,C & MSD 5
Atlas H | Parcae 5A,B,C & MSD 5

Agency: N/A

Status: Launch Successful

Launch date: Feb. 9, 1983, 1:47 p.m. UTC

Rocket: Atlas H

Launch pad: Space Launch Complex 3E

Location: Vandenberg SFB, CA, USA

...

Latest news about this satellite

There are no fresh news available about this satellite. Check back as we update our databases every day.


Newsletter sign-up

Weekly statistics, charts and insights to help you stay on top of the space industry.